Stündliche Wetter Bolshie Ploty

Heute, 24 Januar, Sonntag

Zeit Temperatur Niederschläge Wind Luftdruck Luftfeuchtigkeit
00:00 +1°C° 0 mm 2 m/S 740 mmHg 99%
01:00 -1°C° 0 mm 4 m/S 740 mmHg 98%
02:00 -1°C° 0 mm 4 m/S 740 mmHg 98%
03:00 -1°C° 0 mm 4 m/S 740 mmHg 98%
04:00 -1°C° 0 mm 4 m/S 740 mmHg 98%
05:00 -1°C° 0 mm 4 m/S 739 mmHg 98%
06:00 -1°C° 0 mm 4 m/S 739 mmHg 98%
07:00 -1°C° 0 mm 4 m/S 739 mmHg 98%
08:00 -1°C° 0 mm 4 m/S 740 mmHg 98%
09:00 -1°C° 0 mm 4 m/S 740 mmHg 98%
10:00 -1°C° 0 mm 4 m/S 740 mmHg 98%
11:00 -1°C° 0 mm 4 m/S 740 mmHg 99%
12:00 -1°C° 0 mm 5 m/S 740 mmHg 99%
13:00 -1°C° 0 mm 5 m/S 740 mmHg 99%
14:00 -1°C° 0 mm 5 m/S 740 mmHg 99%
15:00 -1°C° 0 mm 5 m/S 739 mmHg 99%
16:00 -1°C° 0 mm 5 m/S 740 mmHg 99%
17:00 -1°C° 0 mm 5 m/S 740 mmHg 98%
18:00 -1°C° 0 mm 5 m/S 740 mmHg 98%
19:00 -1°C° 0 mm 5 m/S 740 mmHg 95%
20:00 -1°C° 0 mm 5 m/S 740 mmHg 92%
21:00 -2°C° 0 mm 6 m/S 740 mmHg 89%
22:00 -2°C° 0 mm 6 m/S 740 mmHg 89%
23:00 -3°C° 0 mm 6 m/S 740 mmHg 88%

Morgen, 25 Januar, Montag

Zeit Temperatur Niederschläge Wind Luftdruck Luftfeuchtigkeit
00:00 -3°C° 0 mm 6 m/S 739 mmHg 88%
01:00 -3°C° 0 mm 6 m/S 739 mmHg 88%
02:00 -4°C° 0 mm 7 m/S 739 mmHg 89%
03:00 -4°C° 0 mm 7 m/S 739 mmHg 90%
04:00 -4°C° 0 mm 7 m/S 739 mmHg 91%
05:00 -4°C° 0 mm 7 m/S 739 mmHg 92%
06:00 -4°C° 0 mm 7 m/S 739 mmHg 93%
07:00 -4°C° 0.1 mm 6 m/S 739 mmHg 94%
08:00 -3°C° 0.1 mm 6 m/S 739 mmHg 94%
09:00 -3°C° 0.1 mm 6 m/S 739 mmHg 95%
10:00 -3°C° 0.1 mm 6 m/S 739 mmHg 95%
11:00 -3°C° 0.1 mm 6 m/S 739 mmHg 96%
12:00 -2°C° 0.1 mm 5 m/S 739 mmHg 96%
13:00 -2°C° 0 mm 5 m/S 739 mmHg 97%
14:00 -2°C° 0 mm 5 m/S 739 mmHg 98%
15:00 -1°C° 0 mm 4 m/S 739 mmHg 99%
16:00 -1°C° 0 mm 5 m/S 739 mmHg 98%
17:00 -1°C° 0 mm 5 m/S 739 mmHg 98%
18:00 -1°C° 0 mm 5 m/S 739 mmHg 97%
19:00 -1°C° 0 mm 5 m/S 739 mmHg 97%
20:00 -1°C° 0 mm 5 m/S 739 mmHg 97%
21:00 -1°C° 0 mm 5 m/S 739 mmHg 97%
22:00 -2°C° 0.1 mm 5 m/S 739 mmHg 97%
23:00 -2°C° 0.1 mm 5 m/S 739 mmHg 97%

übermorgen, 26 Januar, Dienstag

Zeit Temperatur Niederschläge Wind Luftdruck Luftfeuchtigkeit
00:00 -2°C° 0.1 mm 5 m/S 739 mmHg 97%
01:00 -3°C° 0 mm 6 m/S 738 mmHg 96%
02:00 -3°C° 0 mm 6 m/S 738 mmHg 96%
03:00 -3°C° 0 mm 6 m/S 738 mmHg 96%
04:00 -3°C° 0 mm 7 m/S 737 mmHg 96%
05:00 -3°C° 0 mm 7 m/S 737 mmHg 96%
06:00 -4°C° 0 mm 8 m/S 736 mmHg 96%
07:00 -4°C° 0 mm 8 m/S 736 mmHg 95%
08:00 -4°C° 0 mm 9 m/S 736 mmHg 93%
09:00 -4°C° 0 mm 9 m/S 735 mmHg 92%
10:00 -4°C° 0.2 mm 9 m/S 735 mmHg 93%
11:00 -4°C° 0.2 mm 8 m/S 735 mmHg 94%
12:00 -2°C° 0.2 mm 8 m/S 735 mmHg 95%
13:00 -2°C° 0 mm 8 m/S 734 mmHg 95%
14:00 -2°C° 0 mm 8 m/S 734 mmHg 96%
15:00 -2°C° 0 mm 7 m/S 733 mmHg 96%
16:00 -2°C° 0.4 mm 8 m/S 732 mmHg 97%
17:00 -2°C° 0.4 mm 8 m/S 732 mmHg 97%
18:00 -3°C° 0.4 mm 9 m/S 731 mmHg 97%
19:00 -2°C° 1.1 mm 8 m/S 731 mmHg 98%
20:00 -2°C° 1.1 mm 8 m/S 730 mmHg 98%
21:00 -2°C° 1.1 mm 8 m/S 730 mmHg 98%
22:00 -2°C° 0.1 mm 8 m/S 730 mmHg 93%
23:00 -4°C° 0.1 mm 8 m/S 730 mmHg 88%

27 Januar, Mittwoch

Zeit Temperatur Niederschläge Wind Luftdruck Luftfeuchtigkeit
00:00 -5°C° 0.1 mm 8 m/S 730 mmHg 83%
01:00 -5°C° 0 mm 8 m/S 731 mmHg 84%
02:00 -5°C° 0 mm 9 m/S 731 mmHg 85%
03:00 -6°C° 0 mm 9 m/S 731 mmHg 86%
04:00 -6°C° 0.1 mm 9 m/S 731 mmHg 87%
05:00 -6°C° 0.1 mm 9 m/S 731 mmHg 88%
06:00 -6°C° 0.1 mm 9 m/S 731 mmHg 89%
07:00 -6°C° 0.1 mm 9 m/S 732 mmHg 89%
08:00 -6°C° 0.1 mm 9 m/S 732 mmHg 89%
09:00 -6°C° 0.1 mm 9 m/S 732 mmHg 89%
10:00 -6°C° 0.1 mm 9 m/S 732 mmHg 88%
11:00 -7°C° 0.1 mm 10 m/S 733 mmHg 88%
12:00 -5°C° 0.1 mm 10 m/S 733 mmHg 87%
13:00 -5°C° 0 mm 10 m/S 733 mmHg 86%
14:00 -5°C° 0 mm 9 m/S 733 mmHg 86%
15:00 -5°C° 0 mm 9 m/S 733 mmHg 85%
16:00 -6°C° 0 mm 8 m/S 734 mmHg 85%
17:00 -6°C° 0 mm 8 m/S 734 mmHg 86%
18:00 -6°C° 0 mm 7 m/S 734 mmHg 86%
19:00 -6°C° 0 mm 7 m/S 735 mmHg 87%
20:00 -6°C° 0 mm 7 m/S 735 mmHg 87%
21:00 -6°C° 0 mm 7 m/S 735 mmHg 88%
22:00 -6°C° 0 mm 6 m/S 735 mmHg 89%
23:00 -6°C° 0 mm 5 m/S 736 mmHg 90%

28 Januar, Donnerstag

Zeit Temperatur Niederschläge Wind Luftdruck Luftfeuchtigkeit
00:00 -6°C° 0 mm 5 m/S 736 mmHg 91%
01:00 -7°C° 0 mm 4 m/S 736 mmHg 92%
02:00 -7°C° 0 mm 4 m/S 736 mmHg 93%
03:00 -7°C° 0 mm 4 m/S 736 mmHg 94%
04:00 -7°C° 0 mm 3 m/S 735 mmHg 95%
05:00 -7°C° 0 mm 3 m/S 735 mmHg 95%
06:00 -7°C° 0 mm 3 m/S 735 mmHg 95%
07:00 -7°C° 0 mm 3 m/S 735 mmHg 95%
08:00 -8°C° 0 mm 3 m/S 736 mmHg 95%
09:00 -7°C° 0 mm 2 m/S 736 mmHg 95%
10:00 -6°C° 0 mm 2 m/S 736 mmHg 95%
11:00 -5°C° 0 mm 2 m/S 736 mmHg 95%
12:00 -5°C° 0 mm 2 m/S 735 mmHg 95%
13:00 -5°C° 0 mm 2 m/S 735 mmHg 95%
14:00 -3°C° 0 mm 1 m/S 735 mmHg 95%
15:00 -3°C° 0 mm 1 m/S 735 mmHg 95%
16:00 -3°C° 0 mm 1 m/S 735 mmHg 95%
17:00 -4°C° 0 mm 1 m/S 735 mmHg 95%
18:00 -4°C° 0 mm 1 m/S 735 mmHg 94%
19:00 -4°C° 0 mm 1 m/S 735 mmHg 94%
20:00 -4°C° 0 mm 1 m/S 735 mmHg 94%
21:00 -4°C° 0 mm 1 m/S 735 mmHg 94%

29 Januar, Freitag

Zeit Temperatur Niederschläge Wind Luftdruck Luftfeuchtigkeit
Mehr zeigen

Wir brauchen deine Erlaubnis

Meteoprog und unser Service Anbieter werden persönliche Daten aufbewahren, so wie Cookies, Geräte Bezeichnung oder ähnliche Technologien von deinem Gerät und Prozess, so wie Persönliche Daten Inhalte und Werbungen, genauso wie social Media und den Verkehr zu analysieren.

  • Aufbewahrung und/oder Zugang zu deiner Geräte Informationen.

    Cookies, Geräte Bezeichnung oder andere Informationen, können aufbewahrt oder Zugang zu deinem Gerät erhalten, für den Grund, der oben angegeben wird.

  • Personalisierte Werbung und Inhalte, Messungen, Einblick in das Publikum und Produkt Entwicklung.

    Werbungen und Inhalte können personalisiert werden, basierend auf ein Profil. Mehr Daten können besser personalisierte Werbungen und Inhalte hinzufügen. Werbung und Inhalte können gezeigt und gemessen werden. Einblicke über das Publikum, welche die Werbung gesehen haben und den Inhalt, können abgeleitet werden. So wie Daten können genutzt werden, um es zu verbessern oder die Benutzer Erfahrung zu verbessern das System und die Software.

Wenn du “Ich stimme zu” klickst, erlaubst du uns, die Cookies zu benutzen die Geräte Bezeichnung, den Web oder ähnliche Technologien zu benutzen. Deine Settings, können in deinem Gerät bei deinem Browser geändert werden.

Für den bestimmten Zweck, berechtigten Interessen beruhen darauf, mehr als auf den Inhalt. Du kannst mehr darüber in unseren Privaten und Cookie Politik lesen.